Voltar ao catálogo

STARLINK-37865

AtivoComunicaçõesSSO
NORAD 69550·PAYLOAD·🇺🇸 United States

Lançado Jun 15, 2026 de Vandenberg Space Force Base

Loading…

Próximas Passagens (próximas 24 horas)

TLE

AtualizadoSource: CelesTrak SupGP

Época: Sep 15, 2026, 03:26 UTC

1 69550C 26135E   26258.14354167 -.00039363  00000+0 -12219-2 0  2586
2 69550  97.2837 285.8628 0001222  88.1221  15.3565 15.33458804    18

Acompanhe STARLINK-37865 em tempo real com AllMySat

Download on the App Store